Petersburg, AK

11:16 PM AKST on February 24, 2017 (GMT -0900)
Johnson Petersburg

Weather History for PAPG - October, 2011

Change the Weather History Date:

Saturday, October 15, 2011

  Actual Average Record
Temperature  
Mean Temperature 42 °F -  
Max Temperature 44 °F 46 °F 54 °F (1986)
Min Temperature 39 °F 38 °F 19 °F (1992)
Degree Days  
Heating Degree Days 24    
Moisture  
Dew Point 37 °F    
Average Humidity 84    
Maximum Humidity 100    
Minimum Humidity 76    
Precipitation  
Precipitation 0.00 in - - ()
Sea Level Pressure  
Sea Level Pressure 30.04 in    
Wind  
Wind Speed 2 mph (SSE)    
Max Wind Speed 9 mph    
Max Gust Speed 17 mph    
Visibility 10 miles    
Events      
Averages and records for this station are not official NWS values.
T = Trace of Precipitation, MM = Missing Value Source: NWS Daily Summary

Daily Weather History Graph

Daily Weather History Graph

Search for Another Location

Airport or City:

Trip Planner

Search our weather history database for the weather conditions in past years. The results will help you decide how hot, cold, wet, or windy it might be!

Date:

Astronomy

Oct. 15, 2011 Rise Set
Actual Time 7:24 AM AKDT 5:49 PM AKDT
Civil Twilight 6:45 AM AKDT 6:28 PM AKDT
Nautical Twilight 6:01 AM AKDT 7:11 PM AKDT
Astronomical Twilight 5:17 AM AKDT 7:56 PM AKDT
Moon 6:59 PM AKDT (10/15) 11:47 AM AKDT (10/15)
Length of Visible Light 11h 42m
Length of Day
10h 25m
Waning Gibbous, 88% of the Moon is Illuminated
Oct 15
Waning Gibbous
Oct 19
Last Quarter
Oct 26
New
Nov 2
First Quarter
Nov 10
Full

Hourly Weather History & Observations

Time (AKDT) Temp. Windchill Dew Point Humidity Pressure Visibility Wind Dir Wind Speed Gust Speed Precip Events Conditions
12:16 AM 39.2 °F - 39.2 °F 100% 30.08 in 10.0 mi Calm Calm - N/A   Overcast
12:36 AM 39.2 °F 35.9 °F 37.4 °F 93% 30.08 in 10.0 mi West 4.6 mph - N/A   Overcast
12:56 AM 39.2 °F - 37.4 °F 93% 30.08 in 10.0 mi Calm Calm - N/A   Overcast
1:16 AM 39.2 °F - 39.2 °F 100% 30.07 in 10.0 mi Calm Calm - N/A   Overcast
1:36 AM 39.2 °F - 37.4 °F 93% 30.08 in 10.0 mi Calm Calm - N/A   Overcast
1:56 AM 39.2 °F 37.0 °F 37.4 °F 93% 30.08 in 10.0 mi WSW 3.5 mph - N/A   Overcast
2:16 AM 39.2 °F 37.0 °F 37.4 °F 93% 30.07 in 10.0 mi West 3.5 mph - N/A   Overcast
2:36 AM 39.2 °F 35.9 °F 37.4 °F 93% 30.07 in 10.0 mi West 4.6 mph - N/A   Overcast
2:56 AM 39.2 °F 37.0 °F 37.4 °F 93% 30.07 in 10.0 mi SW 3.5 mph - N/A   Overcast
3:16 AM 39.2 °F - 37.4 °F 93% 30.07 in 10.0 mi Calm Calm - N/A   Overcast
3:36 AM 39.2 °F - 37.4 °F 93% 30.06 in 10.0 mi Calm Calm - N/A   Overcast
3:56 AM 39.2 °F - 37.4 °F 93% 30.06 in 10.0 mi Calm Calm - N/A   Overcast
4:16 AM 39.2 °F 37.0 °F 37.4 °F 93% 30.06 in 10.0 mi WSW 3.5 mph - N/A   Overcast
4:36 AM 39.2 °F - 37.4 °F 93% 30.06 in 10.0 mi Calm Calm - N/A   Overcast
5:16 AM 41.0 °F - 37.4 °F 87% 30.05 in 10.0 mi Calm Calm - N/A   Overcast
5:36 AM 41.0 °F 37.1 °F 37.4 °F 87% 30.05 in 10.0 mi SSW 5.8 mph - N/A   Overcast
5:56 AM 41.0 °F - 37.4 °F 87% 30.05 in 10.0 mi Calm Calm - N/A   Overcast
6:16 AM 42.8 °F 40.1 °F 37.4 °F 81% 30.04 in 10.0 mi SW 4.6 mph - N/A   Overcast
6:36 AM 42.8 °F - 35.6 °F 76% 30.04 in 10.0 mi Calm Calm - N/A   Overcast
6:56 AM 42.8 °F 37.5 °F 35.6 °F 76% 30.04 in 10.0 mi SE 9.2 mph - N/A   Overcast
7:16 AM 42.8 °F - 35.6 °F 76% 30.04 in 10.0 mi Calm Calm - N/A   Overcast
7:36 AM 42.8 °F - 35.6 °F 76% 30.04 in 10.0 mi Calm Calm - N/A   Overcast
7:56 AM 42.8 °F - 37.4 °F 81% 30.04 in 10.0 mi Calm Calm - N/A   Overcast
8:36 AM 42.8 °F - 37.4 °F 81% 30.03 in 10.0 mi Calm Calm - N/A   Overcast
8:56 AM 42.8 °F - 37.4 °F 81% 30.04 in 10.0 mi Calm Calm - N/A   Overcast
9:16 AM 42.8 °F 41.1 °F 37.4 °F 81% 30.04 in 10.0 mi North 3.5 mph - N/A   Overcast
9:36 AM 42.8 °F 40.1 °F 37.4 °F 81% 30.04 in 10.0 mi NNW 4.6 mph - N/A   Overcast
9:56 AM 42.8 °F - 37.4 °F 81% 30.04 in 10.0 mi Calm Calm - N/A   Overcast
10:16 AM 42.8 °F 38.6 °F 37.4 °F 81% 30.05 in 10.0 mi South 6.9 mph - N/A   Overcast
10:36 AM 42.8 °F 41.1 °F 37.4 °F 81% 30.05 in 10.0 mi South 3.5 mph - N/A   Overcast
10:56 AM 42.8 °F - 37.4 °F 81% 30.04 in 10.0 mi Calm Calm - N/A   Overcast
11:16 AM 42.8 °F 38.0 °F 37.4 °F 81% 30.04 in 10.0 mi East 8.1 mph - N/A   Overcast
11:36 AM 42.8 °F 41.1 °F 37.4 °F 81% 30.04 in 10.0 mi SW 3.5 mph - N/A   Overcast
11:56 AM 42.8 °F - 37.4 °F 81% 30.04 in 10.0 mi Calm Calm - N/A   Overcast
12:16 PM 44.6 °F 42.2 °F 37.4 °F 76% 30.04 in 10.0 mi NE 4.6 mph - N/A   Overcast
12:36 PM 44.6 °F - 37.4 °F 76% 30.04 in 10.0 mi Calm Calm - N/A   Overcast
12:56 PM 44.6 °F - 37.4 °F 76% 30.04 in 10.0 mi Calm Calm - N/A   Overcast
1:16 PM 44.6 °F - 39.2 °F 81% 30.04 in 10.0 mi Calm Calm - N/A   Overcast
1:36 PM 44.6 °F 42.2 °F 37.4 °F 76% 30.03 in 10.0 mi ESE 4.6 mph - N/A   Overcast
1:56 PM 44.6 °F 40.2 °F 37.4 °F 76% 30.03 in 10.0 mi ESE 8.1 mph - N/A   Overcast
2:16 PM 42.8 °F 37.5 °F 37.4 °F 81% 30.02 in 10.0 mi SE 9.2 mph 17.3 mph N/A   Overcast
2:36 PM 42.8 °F 38.6 °F 39.2 °F 87% 30.02 in 10.0 mi SE 6.9 mph - N/A   Overcast
2:56 PM 44.6 °F - 37.4 °F 76% 30.01 in 10.0 mi Calm Calm - N/A   Mostly Cloudy
3:16 PM 42.8 °F 41.1 °F 39.2 °F 87% 30.01 in 10.0 mi SE 3.5 mph 16.1 mph N/A   Mostly Cloudy
3:36 PM 42.8 °F - 37.4 °F 81% 30.01 in 10.0 mi Calm Calm - N/A   Mostly Cloudy
3:56 PM 42.8 °F 37.5 °F 37.4 °F 81% 30.00 in 10.0 mi East 9.2 mph - N/A   Overcast
4:16 PM 42.8 °F 37.5 °F 37.4 °F 81% 30.00 in 10.0 mi ESE 9.2 mph - N/A   Overcast
4:36 PM 42.8 °F 38.6 °F 37.4 °F 81% 30.00 in 10.0 mi ESE 6.9 mph - N/A   Overcast
4:56 PM 42.8 °F - 37.4 °F 81% 30.00 in 7.0 mi Calm Calm - N/A   Overcast
5:16 PM 42.8 °F 38.6 °F 37.4 °F 81% 29.99 in 7.0 mi East 6.9 mph - N/A   Overcast
5:36 PM 42.8 °F - 37.4 °F 81% 29.99 in 7.0 mi Calm Calm - N/A   Overcast
5:56 PM 42.8 °F 41.1 °F 37.4 °F 81% 29.98 in 7.0 mi SE 3.5 mph - N/A   Overcast
6:16 PM 42.8 °F 38.6 °F 37.4 °F 81% 29.98 in 7.0 mi East 6.9 mph - N/A   Overcast
6:36 PM 42.8 °F 40.1 °F 37.4 °F 81% 29.98 in 7.0 mi ESE 4.6 mph - N/A   Overcast
6:56 PM 42.8 °F - 37.4 °F 81% 29.98 in 10.0 mi Calm Calm - N/A   Overcast
7:16 PM 42.8 °F 39.3 °F 37.4 °F 81% 29.97 in 10.0 mi ESE 5.8 mph - N/A   Overcast
7:36 PM 42.8 °F 38.0 °F 37.4 °F 81% 29.97 in 10.0 mi ESE 8.1 mph - N/A   Overcast
7:56 PM 42.8 °F 41.1 °F 37.4 °F 81% 29.97 in 10.0 mi ENE 3.5 mph - N/A   Overcast
8:16 PM 42.8 °F - 37.4 °F 81% 29.97 in 10.0 mi Calm Calm - N/A   Overcast
8:36 PM 42.8 °F 40.1 °F 37.4 °F 81% 29.96 in 10.0 mi ESE 4.6 mph - N/A   Overcast
8:56 PM 42.8 °F 41.1 °F 37.4 °F 81% 29.96 in 10.0 mi NE 3.5 mph - N/A   Overcast
9:16 PM 42.8 °F 39.3 °F 37.4 °F 81% 29.96 in 10.0 mi East 5.8 mph - N/A   Overcast
9:36 PM 42.8 °F 41.1 °F 37.4 °F 81% 29.96 in 10.0 mi ENE 3.5 mph - N/A   Overcast
9:56 PM 42.8 °F 38.6 °F 37.4 °F 81% 29.96 in 10.0 mi East 6.9 mph - N/A   Overcast
10:16 PM 42.8 °F 38.6 °F 37.4 °F 81% 29.96 in 10.0 mi East 6.9 mph - N/A   Overcast
10:36 PM 42.8 °F 38.6 °F 37.4 °F 81% 29.95 in 8.0 mi East 6.9 mph - N/A   Overcast
10:56 PM 42.8 °F 38.6 °F 37.4 °F 81% 29.96 in 9.0 mi ESE 6.9 mph - N/A   Overcast
11:16 PM 41.0 °F 38.0 °F 37.4 °F 87% 29.96 in 8.0 mi ESE 4.6 mph - N/A   Overcast
11:36 PM 41.0 °F 39.0 °F 37.4 °F 87% 29.96 in 8.0 mi SE 3.5 mph - N/A   Overcast
11:56 PM 42.8 °F 41.1 °F 37.4 °F 81% 29.96 in 10.0 mi SE 3.5 mph - N/A   Overcast